Weather History for KMCO - January, 2014

Change the Weather History Date:

Sunday, January 26, 2014

  Actual Average Record
Temperature  
Mean Temperature 58 °F 61 °F  
Max Temperature 69 °F 72 °F 87 °F (1929)
Min Temperature 47 °F 50 °F 21 °F (1905)
Degree Days  
Heating Degree Days 7 6  
Month to date heating degree days 203 163  
Since 1 July heating degree days 260 354  
Cooling Degree Days 0 1  
Month to date cooling degree days 40 29  
Year to date cooling degree days 40 29  
Growing Degree Days 8 (Base 50)    
Moisture  
Dew Point 54 °F    
Average Humidity 80    
Maximum Humidity 97    
Minimum Humidity 63    
Precipitation  
Precipitation 0.02 in 0.07 in 1.00 in (1904)
Month to date precipitation 1.28 1.96  
Year to date precipitation 1.28 1.96  
Sea Level Pressure  
Sea Level Pressure 30.04 in    
Wind  
Wind Speed 4 mph (WSW)    
Max Wind Speed 14 mph    
Max Gust Speed 21 mph    
Visibility 8 miles    
Events Rain    
T = Trace of Precipitation, MM = Missing Value Source: NWS Daily Summary

Daily Weather History Graph

Daily Weather History Graph

Search for Another Location

Airport or City:

Trip Planner

Search our weather history database for the weather conditions in past years. The results will help you decide how hot, cold, wet, or windy it might be!

Date:

Astronomy

Jan. 26, 2014 Rise Set
Actual Time 7:15 AM EST 6:00 PM EST
Civil Twilight 6:50 AM EST 6:25 PM EST
Nautical Twilight 6:22 AM EST 6:53 PM EST
Astronomical Twilight 5:54 AM EST 7:21 PM EST
Moon 2:50 AM EST (1/26) 1:50 PM EST (1/26)
Length of Visible Light 11h 34m
Length of Day
10h 44m
Waning Crescent, 24% of the Moon is Illuminated
Jan 26
Waning Crescent
Jan 30
New
Feb 6
First Quarter
Feb 14
Full
Feb 22
Last Quarter

Hourly Weather History & Observations

Time (EST) Temp. Dew Point Humidity Pressure Visibility Wind Dir Wind Speed Gust Speed Precip Events Conditions
12:53 AM 50.0 °F 44.1 °F 80% 30.06 in 10.0 mi SSW 3.5 mph - N/A   Partly Cloudy
1:53 AM 50.0 °F 45.0 °F 83% 30.04 in 10.0 mi Calm Calm - N/A   Partly Cloudy
2:53 AM 48.0 °F 44.1 °F 86% 30.03 in 10.0 mi Calm Calm - N/A   Mostly Cloudy
3:53 AM 52.0 °F 48.0 °F 86% 30.03 in 10.0 mi Calm Calm - N/A   Mostly Cloudy
4:53 AM 54.0 °F 50.0 °F 86% 30.04 in 10.0 mi NNW 8.1 mph - N/A   Overcast
5:05 AM 53.6 °F 50.0 °F 88% 30.04 in 10.0 mi NW 4.6 mph - N/A   Overcast
5:53 AM 55.9 °F 51.1 °F 84% 30.04 in 9.0 mi Calm Calm - N/A   Overcast
6:39 AM 57.2 °F 51.8 °F 82% 30.06 in 9.0 mi WSW 3.5 mph - N/A   Overcast
6:53 AM 57.0 °F 52.0 °F 83% 30.06 in 8.0 mi Calm Calm - N/A   Overcast
7:30 AM 57.2 °F 51.8 °F 82% 30.07 in 8.0 mi Calm Calm - N/A   Overcast
7:53 AM 57.9 °F 53.1 °F 84% 30.06 in 7.0 mi NNW 4.6 mph - N/A   Overcast
8:06 AM 57.2 °F 53.6 °F 88% 30.07 in 8.0 mi NNW 5.8 mph - N/A   Overcast
8:26 AM 57.2 °F 53.6 °F 88% 30.07 in 7.0 mi North 6.9 mph - N/A   Overcast
8:53 AM 59.0 °F 52.0 °F 78% 30.08 in 10.0 mi North 4.6 mph - N/A   Overcast
9:53 AM 60.1 °F 50.0 °F 69% 30.09 in 10.0 mi Calm Calm - N/A   Overcast
10:31 AM 60.8 °F 51.8 °F 72% 30.09 in 10.0 mi Calm Calm - N/A   Overcast
10:53 AM 64.0 °F 52.0 °F 65% 30.08 in 10.0 mi Variable 3.5 mph - N/A   Overcast
11:00 AM 62.6 °F 51.8 °F 68% 30.09 in 10.0 mi Calm Calm - N/A   Overcast
11:53 AM 64.0 °F 51.1 °F 63% 30.08 in 10.0 mi WSW 3.5 mph - N/A   Overcast
12:53 PM 64.9 °F 53.1 °F 65% 30.05 in 10.0 mi SSW 5.8 mph - N/A   Overcast
1:53 PM 66.9 °F 55.0 °F 66% 30.03 in 10.0 mi WSW 10.4 mph - N/A   Overcast
2:17 PM 66.2 °F 55.4 °F 68% 30.01 in 10.0 mi SSW 5.8 mph - N/A   Overcast
2:53 PM 68.0 °F 55.0 °F 63% 30.01 in 10.0 mi SSW 8.1 mph - N/A   Overcast
3:53 PM 68.0 °F 55.9 °F 65% 30.00 in 10.0 mi South 9.2 mph - N/A   Overcast
4:31 PM 66.2 °F 57.2 °F 73% 30.00 in 5.0 mi SW 11.5 mph - 0.00 in Rain Light Rain
4:53 PM 64.9 °F 60.1 °F 84% 30.01 in 8.0 mi SW 9.2 mph - 0.01 in Rain Light Rain
5:53 PM 64.0 °F 60.1 °F 87% 30.02 in 8.0 mi WSW 8.1 mph - 0.00 in   Light Drizzle
6:01 PM 62.6 °F 60.8 °F 94% 30.02 in 2.0 mi WSW 6.9 mph - 0.00 in Rain Light Rain
6:18 PM 62.6 °F 60.8 °F 94% 30.02 in 7.0 mi West 4.6 mph - 0.00 in   Overcast
6:53 PM 63.0 °F 60.1 °F 90% 30.02 in 7.0 mi SW 3.5 mph - 0.00 in   Overcast
7:40 PM 62.6 °F 60.8 °F 94% 30.02 in 6.0 mi Calm Calm - N/A   Overcast
7:53 PM 62.1 °F 60.1 °F 93% 30.03 in 5.0 mi Calm Calm - N/A   Overcast
8:53 PM 61.0 °F 59.0 °F 93% 30.02 in 3.0 mi Calm Calm - N/A   Mostly Cloudy
9:53 PM 62.1 °F 59.0 °F 90% 30.02 in 4.0 mi Calm Calm - N/A   Mostly Cloudy
10:53 PM 62.1 °F 59.0 °F 90% 30.04 in 4.0 mi Calm Calm - 0.01 in   Overcast
11:53 PM 62.1 °F 59.0 °F 90% 30.02 in 3.0 mi SSE 3.5 mph - 0.00 in Rain Light Rain